一网星座-0640星 (ONEWEB-0640)

导读

ONEWEB-0640是一颗由英国发射的卫星,于2023年3月9日升空,隶属于OneWeb低轨卫星互联网星座系统。该星座旨在为全球范围提供高速宽带互联服务,尤其覆盖偏远地区与移动场景,这颗卫星的成功入轨进一步完善了OneWeb星座的组网布局,推进全球卫星互联网服务覆盖能力的提升。

基本信息
目录编号:
55804
目录名称:
ONEWEB-0640
国际标识:
2023-029J
轨道中心:
EARTH
卫星名称:
一网星座-0640星
卫星全名:
一网星座-0640星 (ONEWEB-0640)
卫星状态:
在轨 (已飞行1283 天)
发射日期:
2023-03-09 UTC
国别 :
英国 (GB)
星等 :
--
该卫星已列入 空间交会检测服务 Space Conjunction Data Service (SCDS) ,当前飞行风险评估等级: 无高风险
轨道信息
数据来源 国际轨道数据 AOE轨道数据
星历时间 2026-09-11T21:35:44+0800
14小时前
查看轨道信息
2026-09-11T00:00:00+0800
1天前
查看轨道信息
半长轴 7583.933km 7583.926km
偏心率 0.000257 0.0003704
轨道倾角 87.889° 87.890°
近地点辐角 93.724° 56.210°
升交点赤经 272.508° 272.695°
平近点角 266.419° 8.234°
近地点 1203.846km 1202.979km
远地点 1207.746km 1208.599km
周期 109.547分钟 109.547分钟
每日圈数 13.145015 13.145032
详细信息
平衡模式:
三轴稳定
覆盖范围:
全球
运营商:
一网卫星公司
运营商所在国:
英国
制造商(研发单位):
一网卫星公司
制造商所在国:
英国
使用方式:
暂无
卫星简介
OneWeb卫星网络由648颗重约125公斤的微型卫星组成,运行在1200公里的轨道上。 每颗卫星都能够提供至少每秒8千兆位的吞吐量,以使用其高吞吐量的Ku频段有效载荷为家庭和移动平台提供互联网接入。该卫星仍在工作。
2D轨道图
3D轨道图
轨道高度分析图
轨道倾角分析图
轨道综合分析图
查看轨道综合分析图
与全量物体交会距离演化趋势
与全量物体交会风险概率演化趋势